sat.trackr.live / text

‹ back to catalog

COSMOS 2596 (708K)

NORAD 65590 · 2025-206B

PAYLOAD ACTIVE UNKNOWN

§ Identity

Operator
Country
CIS
Launch date
2025-09-13
Launch site
PLMSC
Launch vehicle
Mass (kg)
RCS (m²)

Purposes: nav

External: N2YO · Heavens-Above · Gunter

§ Orbital elements

Epoch: 2026-05-20T12:51:28.157184Z

Period
675.74 min
Inclination
64.6521°
Eccentricity
0.0011199
Mean motion
2.13100430 rev/d
Perigee alt
19,101.4 km
Apogee alt
19,158.6 km
Semi-major
25,508.1 km
B*
0.0000e+0
RAAN
315.9473°
Arg perigee
315.4946°
Mean anomaly
223.7566°
Rev number
532

§ Raw data

COSMOS 2596 (708K)1 65590U 25206B   26140.53574256 -.00000038  00000+0  00000+0 0  99902 65590  64.6521 315.9473 0011199 315.4946 223.7566  2.13100430  5321

JSON: /api/v1/satellites/65590 · /tle

For live sub-satellite position, see the globe view (requires WebGL).

§ Visibility from observer

Set your observer location to see the next 7 days of passes ≥ 10°. The values pass through the URL so the page stays shareable.

No JS? Fill the form by hand. The geolocation button needs JavaScript.